Dewpoint
11 11 12 12 13 12 11 11 13 13 12 12 11 12 12 12 11 11 11 11 11 11 11 11 11 11 12 13 13 13 12 12 13 15 16 16 15 16 17 18 19 19 20 21 22 24 25 25 24 23 21 20 19 19 18 19 19 18 18 19 19 19 19 19 19 19 19 19 19
11 11 12 13 13 12 11 11 12 12 12 12 12 12 12 12 12 11 11 11 12 12 12 11 12 12 12 12 13 12 11 12 13 14 15 15 16 17 17 18 19 19 20 21 23 24 24 24 23 22 21 20 19 19 19 19 19 19 19 19 19 19 19 19 19 19 19 19 19
11 11 11 11 11 11 11 11 11 11 12 12 12 12 12 12 12 12 12 12 12 12 12 11 12 13 13 13 13 12 12 12 14 14 15 15 15 16 17 18 19 19 21 22 23 24 24 24 23 22 21 20 19 19 18 18 18 18 19 19 19 19 19 19 19 19 19 19 19
12 11 11 11 11 11 11 11 11 11 12 12 13 13 12 12 12 12 12 13 13 12 12 12 13 14 15 14 13 12 13 14 15 15 15 15 16 16 17 18 19 19 20 21 22 24 24 23 22 22 21 20 20 19 19 19 19 19 19 19 19 19 19 19 19 20 20 20 20
12 12 12 12 12 12 12 12 12 12 12 13 13 12 12 13 13 13 13 13 13 12 12 13 14 15 15 14 13 13 13 14 16 16 15 16 16 17 18 18 19 20 20 20 21 23 24 23 23 22 21 21 20 20 20 20 20 20 19 19 19 20 20 20 20 20 20 20 20
12 12 12 13 13 13 13 13 13 13 13 14 13 12 12 12 12 12 13 13 13 13 13 14 15 15 14 14 14 13 13 13 15 15 16 17 17 18 18 19 19 20 20 20 20 22 24 24 23 23 22 22 21 21 21 21 21 21 21 20 20 20 20 20 21 21 21 21 21
12 13 13 13 14 14 14 14 14 14 14 14 13 12 12 12 13 13 13 13 13 13 13 14 14 14 14 14 15 15 14 14 15 15 16 17 18 19 19 19 19 20 21 20 19 20 23 24 23 23 23 23 22 21 21 22 22 22 22 21 21 21 22 22 22 22 22 22 22
14 14 14 15 15 15 15 15 15 14 14 13 13 13 13 13 14 14 13 13 13 13 14 14 14 14 15 15 16 16 15 15 15 16 17 17 18 19 19 20 19 20 21 21 19 19 21 23 23 23 23 23 22 22 23 24 24 24 23 23 22 22 23 24 24 24 23 23 24
14 15 15 16 16 16 16 16 15 15 14 13 14 13 13 14 15 15 14 13 13 14 14 14 14 15 15 16 17 17 17 17 17 17 18 19 19 20 20 20 20 20 21 21 19 19 20 22 23 23 23 23 23 24 24 26 26 26 25 23 23 23 24 24 24 24 24 24 25
14 15 15 15 15 15 16 16 16 15 15 14 14 14 14 15 15 15 14 14 15 14 14 14 15 15 16 17 17 18 18 18 18 19 19 20 21 21 21 21 21 21 22 21 19 18 19 21 22 22 22 22 23 24 25 26 26 26 25 24 24 25 25 25 25 25 25 25 26
14 15 15 15 15 16 17 15 15 15 15 15 15 15 15 15 15 14 14 15 14 14 14 15 16 17 17 18 18 18 18 18 18 19 19 20 21 21 22 22 22 23 23 22 19 18 19 20 21 22 22 21 23 24 25 25 25 25 25 24 25 25 25 24 24 25 25 25 26
14 15 15 16 16 17 16 15 16 16 16 15 16 15 15 15 14 15 15 15 14 14 15 17 17 18 18 18 18 18 18 18 18 18 19 19 20 21 22 22 23 23 24 23 20 19 19 20 21 22 22 21 22 23 24 24 24 24 24 24 24 24 24 24 24 24 24 24 25
15 15 16 16 17 17 16 16 16 16 16 15 16 16 15 15 15 15 15 15 15 15 16 18 18 18 18 18 18 18 18 18 18 18 19 19 20 21 21 22 23 24 24 23 21 19 19 19 21 22 21 21 21 22 23 23 23 23 23 23 23 23 23 24 24 24 24 24 24
15 15 16 16 17 17 17 17 17 16 16 15 16 16 15 15 15 15 15 15 16 17 17 18 18 18 18 19 19 19 19 19 19 19 19 19 19 20 21 22 23 24 24 24 23 21 20 19 20 20 21 20 20 20 21 22 22 22 22 22 22 23 23 23 24 24 24 23 24
15 15 16 17 17 17 17 17 17 16 15 15 16 16 15 15 15 15 16 16 17 17 17 17 18 18 19 19 19 19 19 19 19 19 19 19 19 20 20 21 22 23 24 24 24 23 22 20 19 19 20 20 20 20 20 21 21 21 21 22 22 22 22 23 23 23 23 23 23
15 16 17 17 17 17 17 17 17 16 16 16 17 17 16 15 16 17 18 18 18 17 17 18 18 19 19 19 20 20 20 19 19 19 19 19 20 20 21 21 22 23 24 24 25 24 24 21 20 19 20 20 19 19 19 20 20 20 20 21 21 21 21 21 22 22 23 23 23
16 17 18 18 18 18 18 17 17 16 16 17 18 17 16 16 17 18 19 19 18 18 18 19 19 19 19 19 20 20 20 20 20 20 20 20 21 22 22 22 22 23 23 24 24 25 24 22 21 20 20 20 19 19 19 19 19 20 20 20 20 20 21 21 21 21 22 22 22
17 18 18 19 19 19 19 19 18 18 18 18 18 18 18 18 18 19 19 20 19 19 19 19 20 20 20 20 21 21 22 22 21 21 21 22 22 22 22 22 23 23 23 24 24 24 24 23 21 20 20 20 20 20 19 19 20 19 19 19 19 20 20 20 21 21 21 21 22
17 18 19 19 19 19 19 19 19 19 19 19 19 19 19 19 19 19 20 20 19 19 19 19 20 20 21 22 23 23 23 24 24 24 23 23 23 23 23 23 23 23 23 23 24 24 24 23 21 20 19 20 19 19 19 19 19 19 19 19 19 20 20 20 20 21 21 21 21
18 18 19 19 19 19 19 19 19 19 19 19 19 19 19 19 20 20 20 21 20 19 19 20 20 20 21 23 24 24 24 24 24 24 24 24 24 24 23 23 23 23 23 23 23 24 24 24 21 19 19 18 18 18 18 18 19 19 19 19 19 20 20 20 20 20 20 20 21
19 19 19 19 19 20 19 19 20 20 19 19 19 19 19 20 20 20 21 20 20 19 20 20 20 20 21 22 24 24 25 24 24 25 25 25 24 24 24 24 23 23 23 22 22 24 24 25 22 19 18 17 16 17 18 16 16 16 16 16 17 18 19 19 19 20 20 20 20
19 20 20 20 20 20 20 20 20 20 19 19 19 19 19 20 20 20 20 20 20 20 20 20 20 21 22 22 23 24 24 24 24 25 25 25 24 24 24 24 24 23 23 22 22 24 25 26 24 21 19 17 18 18 18 15 15 14 13 12 14 15 17 17 17 18 19 20 20
20 20 20 21 20 20 20 20 20 20 19 19 19 19 19 19 20 20 19 20 20 21 21 21 21 22 23 24 24 24 24 24 24 24 24 24 25 25 25 24 24 23 23 22 22 24 26 27 24 22 19 19 19 18 16 15 15 14 12 11 13 14 15 16 17 18 19 19 19
20 20 20 21 20 20 20 20 20 20 19 19 19 19 19 19 19 20 20 20 21 22 23 22 23 23 23 24 24 24 24 24 24 24 24 24 24 24 24 25 24 23 22 22 23 25 27 28 25 22 21 20 19 18 16 16 15 13 12 12 12 13 14 15 16 16 17 17 17
20 20 20 20 20 20 20 20 20 20 19 19 19 19 19 19 19 19 20 20 21 22 23 23 23 23 22 22 22 22 23 23 23 23 24 24 24 24 24 23 23 22 22 24 26 27 28 30 27 24 21 20 19 19 19 17 15 13 13 13 13 12 13 13 14 15 15 17 18
20 20 20 19 19 19 20 20 20 19 19 19 19 19 19 19 19 19 19 20 21 21 22 22 22 21 21 20 20 20 21 21 22 23 24 24 24 23 22 22 22 23 24 25 27 28 28 30 29 26 23 21 19 19 18 17 15 14 13 13 13 12 12 12 11 12 14 15 17
19 19 19 19 19 19 19 19 19 19 19 19 19 19 19 19 19 19 19 19 20 21 21 21 21 20 20 19 19 19 19 19 21 22 23 23 23 22 21 20 22 24 25 26 27 27 28 29 31 29 25 22 20 19 17 16 16 15 14 14 13 12 11 11 10 10 11 14 16
18 18 18 18 18 18 18 19 19 19 19 19 19 19 19 19 18 18 18 19 19 19 19 19 19 19 18 16 17 18 19 19 20 20 21 22 22 21 20 20 21 23 25 26 27 27 28 28 31 30 27 23 21 20 19 17 16 15 13 12 10 10 9 9 10 10 10 12 14
16 17 17 17 17 17 17 18 19 19 19 19 19 19 19 19 18 18 17 17 17 17 17 17 17 17 16 16 16 17 18 19 19 20 20 21 21 20 20 19 19 21 24 26 27 27 27 27 30 31 29 24 21 19 18 17 16 14 11 10 9 8 7 7 9 10 10 10 12
16 16 17 17 17 17 17 18 19 19 19 19 19 19 19 19 18 18 17 17 16 15 15 16 16 16 16 16 16 16 16 17 18 19 20 20 20 20 19 19 19 21 24 26 27 27 27 26 28 31 30 26 23 21 19 18 15 13 11 10 10 9 9 8 9 9 10 10 11
16 17 17 17 17 17 17 18 19 19 19 19 19 19 19 19 18 17 16 15 15 15 15 15 15 15 15 15 15 15 15 16 17 18 19 19 20 19 19 18 19 21 23 25 26 27 27 27 28 30 31 27 24 21 19 19 17 15 13 12 12 12 11 12 11 10 10 10 12
17 17 17 17 17 17 18 19 19 19 20 19 19 19 19 19 18 16 15 15 14 14 14 13 14 14 14 13 13 13 14 15 17 18 19 19 19 19 19 19 19 21 23 25 26 27 27 27 27 29 30 28 24 22 20 19 17 15 14 14 15 15 14 15 13 11 10 11 13
18 17 17 17 17 18 19 19 20 20 20 20 20 19 19 19 18 18 17 16 15 14 14 13 14 13 13 12 13 13 15 16 17 18 19 19 18 18 18 18 19 21 24 26 26 27 27 27 27 29 30 28 24 22 20 19 18 16 15 15 15 15 15 14 13 12 13 13 14
18 17 17 17 18 18 19 19 20 20 20 20 20 20 19 19 19 18 18 16 15 14 14 13 13 13 13 12 13 14 15 17 18 18 18 17 17 17 17 18 19 22 24 26 26 26 27 27 27 29 30 28 24 22 19 18 17 15 15 15 15 15 15 16 15 15 15 15 15
18 17 17 17 18 18 19 19 20 20 20 19 20 20 20 19 19 18 17 16 16 15 14 14 13 13 13 14 15 15 17 17 17 17 18 18 18 18 18 18 19 21 24 25 26 26 27 27 28 29 30 27 24 21 19 18 16 14 14 14 15 15 16 17 16 16 16 15 15
18 17 16 17 17 18 19 19 19 19 19 19 20 20 19 19 19 18 17 17 17 15 15 14 14 13 14 14 15 17 17 17 17 17 18 18 18 17 17 18 18 20 24 25 26 26 27 27 28 29 29 26 23 21 19 17 15 14 13 13 14 14 15 16 16 16 16 16 16
18 17 16 17 17 18 19 19 19 19 19 19 19 19 19 19 19 18 18 18 17 15 15 14 14 14 15 15 16 17 18 18 18 18 18 18 18 18 18 18 18 20 23 25 26 27 27 28 28 30 29 24 22 20 18 17 15 14 14 14 14 14 15 15 14 15 16 18 18
19 18 17 17 18 19 19 19 19 19 19 19 19 19 19 19 18 18 18 18 17 16 15 15 15 15 15 16 17 18 19 19 19 18 18 18 18 18 19 18 19 20 22 24 25 27 27 28 28 30 29 24 22 19 17 16 15 14 14 14 14 14 14 13 11 11 14 17 17
19 19 19 18 18 19 19 19 19 19 19 19 19 19 19 19 18 18 18 18 17 16 15 15 15 15 16 18 18 18 19 19 19 19 18 18 19 19 20 19 19 19 21 24 25 26 27 28 28 30 30 25 22 19 17 16 15 15 15 15 15 14 13 12 10 10 10 14 16
18 18 18 18 19 19 19 19 19 19 20 20 19 19 19 19 19 19 18 18 16 16 15 15 15 16 17 18 18 18 19 19 19 19 19 19 19 21 22 20 19 19 20 23 24 25 27 28 28 30 31 27 22 19 18 17 16 15 15 15 14 13 12 11 10 9 9 10 13
18 17 18 18 19 19 19 19 19 19 20 20 20 19 19 19 19 18 17 17 16 16 15 15 15 16 17 18 18 18 18 18 18 19 19 19 20 21 22 20 19 19 19 21 23 25 26 27 28 30 31 29 24 21 20 19 17 16 15 15 14 13 12 11 10 9 8 8 10